| time (UTC) | temp C | wind direction | speed KPH | gust KPH | rain 1hr cm | rain 24hr cm | rain mn cm | humidity % | barometer mb |
| 20260502203034 | 17 | 285 | 9.7 | 19.3 | 0.00 | 0.00 | 0.00 | 34 | 1015.9 |
| 20260502201534 | 17 | 214 | 8.0 | 12.9 | 0.00 | 0.00 | 0.00 | 35 | 1016.1 |
| 20260502200029 | 16 | 281 | 12.9 | 19.3 | 0.00 | 0.00 | 0.00 | 34 | 1016.5 |
| 20260502194527 | 16 | 319 | 8.0 | 16.1 | 0.00 | 0.00 | 0.00 | 35 | 1016.8 |
| 20260502193025 | 16 | 298 | 6.4 | 19.3 | 0.00 | 0.00 | 0.00 | 35 | 1016.9 |
| 20260502191523 | 15 | 265 | 6.4 | 16.1 | 0.00 | 0.00 | 0.00 | 35 | 1017.2 |
| 20260502190027 | 15 | 272 | 4.8 | 16.1 | 0.00 | 0.00 | 0.00 | 35 | 1017.6 |
| 20260502184518 | 15 | 250 | 8.0 | 17.7 | 0.00 | 0.00 | 0.00 | 35 | 1017.8 |
| 20260502183017 | 15 | 273 | 6.4 | 19.3 | 0.00 | 0.00 | 0.00 | 35 | 1018.1 |
| 20260502181513 | 14 | 238 | 4.8 | 19.3 | 0.00 | 0.00 | 0.00 | 37 | 1018.3 |
| 20260502163057 | 12 | 276 | 9.7 | 19.3 | 0.00 | 0.00 | 0.00 | 39 | 1019.7 |
| 20260502161621 | 12 | 239 | 8.0 | 17.7 | 0.00 | 0.00 | 0.00 | 39 | 1019.9 |
| 20260502160116 | 11 | 232 | 11.3 | 19.3 | 0.00 | 0.00 | 0.00 | 40 | 1020.0 |
| 20260502151550 | 11 | 283 | 9.7 | 16.1 | 0.00 | 0.00 | 0.00 | 44 | 1020.5 |
| 20260502123027 | 2 | 229 | 4.8 | 6.4 | 0.00 | 0.00 | 0.00 | 77 | 1021.1 |
| 20260502121518 | 1 | 232 | 4.8 | 8.0 | 0.00 | 0.00 | 0.00 | 76 | 1021.0 |
| 20260502114516 | 1 | 231 | 6.4 | 8.0 | 0.00 | 0.00 | 0.00 | 73 | 1020.7 |
| 20260502113015 | 1 | 225 | 8.0 | 11.3 | 0.00 | 0.00 | 0.00 | 73 | 1020.7 |
| 20260502111514 | 1 | 230 | 6.4 | 9.7 | 0.00 | 0.00 | 0.00 | 73 | 1020.7 |
| 20260502110014 | 1 | 233 | 6.4 | 8.0 | 0.00 | 0.00 | 0.00 | 73 | 1020.8 |
| 20260502104510 | 1 | 234 | 6.4 | 8.0 | 0.00 | 0.00 | 0.00 | 73 | 1020.7 |
| 20260502103012 | 2 | 237 | 4.8 | 8.0 | 0.00 | 0.00 | 0.00 | 71 | 1020.7 |
| 20260502101508 | 2 | 243 | 4.8 | 6.4 | 0.00 | 0.00 | 0.00 | 70 | 1020.7 |
| 20260502091505 | 2 | 233 | 4.8 | 11.3 | 0.00 | 0.00 | 0.00 | 69 | 1020.6 |
| 20260502070045 | 3 | 233 | 4.8 | 8.0 | 0.00 | 0.00 | 0.00 | 62 | 1020.7 |
| 20260502064544 | 4 | 241 | 3.2 | 6.4 | 0.00 | 0.00 | 0.00 | 58 | 1021.0 |
| 20260502063053 | 4 | 314 | 1.6 | 4.8 | 0.00 | 0.00 | 0.00 | 58 | 1020.9 |
| 20260502061540 | 5 | 330 | 1.6 | 4.8 | 0.00 | 0.00 | 0.00 | 57 | 1020.9 |
| 20260502060042 | 4 | 330 | 1.6 | 4.8 | 0.00 | 0.00 | 0.00 | 58 | 1020.9 |
| 20260502054538 | 4 | 341 | 1.6 | 3.2 | 0.00 | 0.00 | 0.00 | 57 | 1020.9 |
| 20260502053038 | 5 | 341 | 1.6 | 3.2 | 0.00 | 0.00 | 0.00 | 54 | 1020.8 |
| 20260502051533 | 5 | 341 | 0.0 | 0.0 | 0.00 | 0.00 | 0.00 | 52 | 1020.7 |
| 20260502050034 | 6 | 341 | 0.0 | 0.0 | 0.00 | 0.00 | 0.00 | 51 | 1020.6 |
| 20260502044526 | 6 | 341 | 0.0 | 0.0 | 0.00 | 0.00 | 0.00 | 51 | 1020.6 |
| 20260502043026 | 6 | 341 | 1.6 | 3.2 | 0.00 | 0.00 | 0.00 | 50 | 1020.5 |
| 20260502041529 | 6 | 341 | 3.2 | 4.8 | 0.00 | 0.00 | 0.00 | 48 | 1020.5 |
| 20260502040025 | 7 | 341 | 3.2 | 4.8 | 0.00 | 0.00 | 0.00 | 48 | 1020.6 |
| 20260502034524 | 7 | 341 | 3.2 | 4.8 | 0.00 | 0.00 | 0.00 | 48 | 1020.6 |
| 20260502033026 | 7 | 342 | 3.2 | 6.4 | 0.00 | 0.00 | 0.00 | 48 | 1020.6 |
| 20260502031523 | 7 | 342 | 3.2 | 4.8 | 0.00 | 0.00 | 0.00 | 48 | 1020.6 |
| 20260502030029 | 7 | 342 | 3.2 | 6.4 | 0.00 | 0.00 | 0.00 | 48 | 1020.6 |
| 20260502024520 | 7 | 342 | 4.8 | 6.4 | 0.00 | 0.00 | 0.00 | 48 | 1020.4 |
| 20260502023021 | 7 | 342 | 4.8 | 6.4 | 0.00 | 0.00 | 0.00 | 49 | 1020.4 |
| 20260502021518 | 7 | 342 | 3.2 | 4.8 | 0.00 | 0.00 | 0.00 | 48 | 1020.3 |
| 20260502020017 | 8 | 342 | 3.2 | 6.4 | 0.00 | 0.00 | 0.00 | 47 | 1020.1 |
| 20260502014515 | 8 | 338 | 8.0 | 9.7 | 0.00 | 0.00 | 0.00 | 46 | 1019.9 |
| 20260502013014 | 8 | 343 | 3.2 | 6.4 | 0.00 | 0.00 | 0.00 | 46 | 1019.7 |
| 20260502011519 | 8 | 342 | 4.8 | 8.0 | 0.00 | 0.00 | 0.00 | 45 | 1019.6 |
| 20260502010019 | 8 | 346 | 6.4 | 12.9 | 0.00 | 0.00 | 0.00 | 43 | 1019.6 |
| 20260502004535 | 9 | 345 | 9.7 | 19.3 | 0.00 | 0.00 | 0.00 | 42 | 1019.3 |
| 20260502003010 | 10 | 359 | 4.8 | 9.7 | 0.00 | 0.00 | 0.00 | 41 | 1019.2 |
| 20260502001510 | 10 | 340 | 11.3 | 16.1 | 0.00 | 0.00 | 0.00 | 40 | 1019.2 |
| 20260502000009 | 10 | 343 | 9.7 | 16.1 | 0.00 | 0.00 | 0.00 | 40 | 1019.0 |
| 20260501234508 | 10 | 335 | 12.9 | 17.7 | 0.00 | 0.00 | 0.00 | 40 | 1019.2 |
| 20260501233008 | 10 | 1 | 8.0 | 12.9 | 0.00 | 0.00 | 0.00 | 41 | 1019.0 |
| 20260501231514 | 10 | 328 | 9.7 | 20.9 | 0.00 | 0.00 | 0.00 | 40 | 1019.0 |
| 20260501230007 | 10 | 348 | 6.4 | 11.3 | 0.00 | 0.00 | 0.00 | 41 | 1019.0 |
| 20260501224505 | 10 | 359 | 1.6 | 16.1 | 0.00 | 0.00 | 0.00 | 43 | 1019.1 |
| 20260501223009 | 10 | 347 | 12.9 | 19.3 | 0.00 | 0.00 | 0.00 | 40 | 1019.0 |
| 20260501221504 | 11 | 356 | 8.0 | 17.7 | 0.00 | 0.00 | 0.00 | 39 | 1018.9 |
| 20260501220004 | 11 | 1 | 6.4 | 12.9 | 0.00 | 0.00 | 0.00 | 41 | 1018.9 |
| 20260501214603 | 10 | 1 | 3.2 | 8.0 | 0.00 | 0.00 | 0.00 | 43 | 1019.0 |
| 20260501213102 | 10 | 352 | 12.9 | 19.3 | 0.00 | 0.00 | 0.00 | 40 | 1018.9 |
| 20260501211614 | 10 | 333 | 9.7 | 24.1 | 0.00 | 0.00 | 0.00 | 42 | 1018.9 |
| 20260501204558 | 10 | 354 | 14.5 | 20.9 | 0.00 | 0.00 | 0.00 | 42 | 1019.0 |